EW8511 Weather Reports


time (UTC)temp
C
wind
direction
speed
KPH
gust
KPH
rain 1hr
cm
rain 24hr
cm
rain mn
cm
humidity
%
barometer
mb
20260502230032 16 187 0.0 0.0 0.00 0.00 0.00 33 1004.2
20260502224612 16 192 0.0 0.0 0.00 0.00 0.00 33 1004.4
20260502223043 17 203 0.0 0.0 0.00 0.00 0.00 31 1004.6
20260502221516 17 193 0.0 0.0 0.00 0.00 0.00 30 1004.7
20260502220049 17 263 0.0 0.0 0.00 0.00 0.00 30 1005.0
20260502214505 17 173 0.0 0.0 0.00 0.00 0.00 28 1005.1
20260502213046 17 231 0.0 0.0 0.00 0.00 0.00 29 1005.4
20260502211512 16 220 0.0 0.0 0.00 0.00 0.00 29 1005.7
20260502210106 17 228 0.0 0.0 0.00 0.00 0.00 29 1005.8
20260502204526 18 224 0.0 0.0 0.00 0.00 0.00 26 1005.9
20260502203058 17 169 0.0 0.0 0.00 0.00 0.00 27 1006.0
20260502201525 17 213 0.0 0.0 0.00 0.00 0.00 27 1006.3
20260502200106 17 355 0.0 0.0 0.00 0.00 0.00 26 1006.6
20260502194535 17 277 0.0 0.0 0.00 0.00 0.00 29 1006.9
20260502193004 17 224 0.0 0.0 0.00 0.00 0.00 30 1007.2
20260502191545 17 282 0.0 0.0 0.00 0.00 0.00 27 1007.5
20260502190015 16 192 0.0 0.0 0.00 0.00 0.00 27 1007.8
20260502184601 16 267 0.0 0.0 0.00 0.00 0.00 28 1008.1
20260502183026 16 193 0.0 0.0 0.00 0.00 0.00 27 1008.3
20260502181607 16 219 0.0 0.0 0.00 0.00 0.00 28 1008.5
20260502163052 14 219 0.0 0.0 0.00 0.00 0.00 28 1010.4
20260502161511 13 217 0.0 0.0 0.00 0.00 0.00 26 1010.6
20260502151546 12 256 0.0 0.0 0.00 0.00 0.00 31 1011.6
20260502150118 12 204 0.0 0.0 0.00 0.00 0.00 32 1011.7
20260502123023 -1 107 0.0 0.0 0.00 0.00 0.00 88 1012.7
20260502121555 -2 107 0.0 0.0 0.00 0.00 0.00 87 1012.7
20260502114601 -3 107 0.0 0.0 0.00 0.00 0.00 86 1012.8
20260502113023 -3 107 0.0 0.0 0.00 0.00 0.00 86 1012.7
20260502111604 -3 107 0.0 0.0 0.00 0.00 0.00 86 1012.7
20260502110025 -3 107 0.0 0.0 0.00 0.00 0.00 85 1012.7
20260502104606 -3 107 0.0 0.0 0.00 0.00 0.00 85 1012.7
20260502103033 -3 107 0.0 0.0 0.00 0.00 0.00 84 1012.7
20260502101502 -3 107 0.0 0.0 0.00 0.00 0.00 84 1012.8
20260502100110 -3 107 0.0 0.0 0.00 0.00 0.00 84 1012.9
20260502091520 -2 107 0.0 0.0 0.00 0.00 0.00 83 1012.8
20260502090123 -2 107 0.0 0.0 0.00 0.00 0.00 83 1012.7
20260502071520 -2 107 0.0 0.0 0.00 0.00 0.00 80 1013.4
20260502070054 -2 107 0.0 0.0 0.00 0.00 0.00 79 1013.6
20260502064524 -1 107 0.0 0.0 0.00 0.00 0.00 79 1013.7
20260502063108 -1 107 0.0 0.0 0.00 0.00 0.00 79 1013.8
20260502061538 -1 107 0.0 0.0 0.00 0.00 0.00 79 1013.8
20260502060107 -1 107 0.0 0.0 0.00 0.00 0.00 78 1013.8
20260502054534 -1 107 0.0 0.0 0.00 0.00 0.00 77 1013.9
20260502053001 -1 107 0.0 0.0 0.00 0.00 0.00 76 1014.0
20260502051542 -1 107 0.0 0.0 0.00 0.00 0.00 75 1013.9
20260502050008 -1 107 0.0 0.0 0.00 0.00 0.00 75 1013.9
20260502044549 -1 107 0.0 0.0 0.00 0.00 0.00 73 1014.0
20260502043024 0 107 0.0 0.0 0.00 0.00 0.00 73 1014.0
20260502041613 0 107 0.0 0.0 0.00 0.00 0.00 71 1014.0
20260502040038 0 107 0.0 0.0 0.00 0.00 0.00 67 1014.0
20260502034507 0 107 0.0 0.0 0.00 0.00 0.00 66 1014.1
20260502033047 0 107 0.0 0.0 0.00 0.00 0.00 64 1014.1
20260502031508 1 107 0.0 0.0 0.00 0.00 0.00 62 1014.2
20260502030046 1 107 0.0 0.0 0.00 0.00 0.00 62 1014.2
20260502024514 1 107 0.0 0.0 0.00 0.00 0.00 59 1014.2
20260502023106 2 107 0.0 0.0 0.00 0.00 0.00 57 1014.1
20260502021531 2 107 0.0 0.0 0.00 0.00 0.00 56 1014.0
20260502020004 3 107 0.0 0.0 0.00 0.00 0.00 56 1013.9
20260502014544 4 107 0.0 0.0 0.00 0.00 0.00 56 1013.8
20260502013020 5 113 0.0 0.0 0.00 0.00 0.00 49 1013.7
20260502011602 6 113 0.0 0.0 0.00 0.00 0.00 47 1013.6
20260502010029 6 113 0.0 0.0 0.00 0.00 0.00 45 1013.5
20260502004609 7 101 0.0 0.0 0.00 0.00 0.00 46 1013.4
20260502003034 7 105 0.0 0.0 0.00 0.00 0.00 41 1013.3
20260502001506 8 64 0.0 0.0 0.00 0.00 0.00 40 1013.3
20260502000044 8 55 0.0 0.0 0.00 0.00 0.00 40 1013.2
20260501234507 8 149 0.0 0.0 0.00 0.00 0.00 39 1013.2
20260501233047 9 95 0.0 0.0 0.00 0.00 0.00 38 1013.2
20260501231511 8 147 0.0 0.0 0.00 0.00 0.00 37 1013.2